Showing default

TIANHUI 5A, 58199

Orbit data source: Space-Track

TIANHUI 5A, 58199 is a payload satellite owned by G. Cehui dili (CN) in SSO that was launched on Tue, 31 Oct 2023 UTC via a CHANG ZHENG 6A launch vehicle from the Taiyaun Space Center, China (TSC). Payload-class satellites include a variety of spacecraft equipped with specific instruments for various scientific and technological missions. These include communications satellites like Starlink; space stations such as the ISS; scientific satellites like the Hubble; Earth observation satellites from companies like Planet Labs, Umbra, and HawkEye 360; GPS; miniature CubeSats for education and research; and military/defense satellites.

Loading next visibility...
Identifier
58199, 2023-168A
Orbit
SSO
Last TLE update
5 hours ago
Origin
Manufacturer
DFH
Mission
Operational Civil Radar Imaging
Bus & Motor
CAST-2000?, Unknown motor
Mass
~1,000 kg wet, ~1,000 kg dry
Launch date (UTC)
2023-10-31 (2 years ago)
Launch vehicle
CHANG ZHENG 6A
Launch site
Taiyaun Space Center, China (TSC)
Object type
Payload
Rocket body
Debris
Shape & HBR
Box + 2 Pan, 3.0 m
Radar Cross Section
8.157 m², Large (>1 m²)

Expand to show TLE details & history

TLE from 5 hours ago
0 TIANHUI 5A
1 58199U 23168A   25199.78061462  .00000363  00000-0  45893-4 0  9997
2 58199  97.8222 206.9430 0001563  91.8406 268.2990 14.87581353 93037
Epoch: 2025-07-18T18:44Z
TLE epoch observation values (Epoch: 2025-07-18T18:44:05.103Z)
Latitude
0.00006°
Longitude
-10.90543°
Altitude
608.562 km
Speed
7.555 km/s
True Right ascension
13h 47m 46s
True Declination
0° 00' 00"
Sunlit
Object was in daylight at epoch
Visualization orbit readout
Latitude
-42.2941°
Longitude
-3.57404°
Altitude
622.529 km
Speed
7.546 km/s
Apparent Right ascension
18h 50m 57s
Apparent Declination
-72° 31' 34"
Sunlit
Object is in daylight
Visualization observer readout
Local Sidereal Time
12:10:47
Azimuth
157.042° SSE
Elevation
-40.709°
Doppler factor
1
Orbital elements
Apogee altitude
603.614 km
Perigee altitude
601.431 km
Semi-major axis
6,980.659 km
Eccentricity
0.00016
Inclination
97.8222°
RAAN
206.943°
Arg. of periapsis
91.8406°
True anomaly
268.2811°
Mean anomaly
268.299°
Eccentric anomaly
268.29005°
Mean motion
3.72133 °/min
Orbital period
96.74 mins
BSTAR
0.000045893
Loading maneuver chart data...
Loading SW <> Apogee altitude chart data...
Loading historical data...
Loading historical data...
Loading historical data...
Loading historical data...
Loading historical data...
Loading historical data...
Loading historical data...
Other satellites on launch #168 in the year 2023 (2023-10-31 UTC)
|